Location: *
(46.0770°N, 1.6444°E)
Time: 14:28:23
(UTC+00:00)

Cosmos 1461 - Pass Details

Date: 16 September 2019
Orbit: 525 x 642 km, 65.0° (Epoch: 15 October)

Event Time Altitude Azimuth Distance (km) Brightness Sun altitude
Rises 19:33:19 0° 219° (SW) 2,690 6.6 -16.0°
Reaches altitude 10° 19:35:32 10° 222° (SW) 1,789 5.7 -16.3°
Maximum altitude 19:39:31 73° 307° (NW) 559 2.9 -17.0°
Drops below altitude 10° 19:43:28 10° 33° (NNE) 1,775 5.3 -17.6°
Sets 19:45:40 0° 35° (NE) 2,667 6.2 -17.9°
